THOR ABLESTAR R/B, 1508

Orbit data source: Space-Track

THOR ABLESTAR R/B, 1508 is space debris in LEO originally from a launch on Fri, 13 Aug 1965 UTC launched from the Air Force Western Test Range (AFWTR). Debris objects in space refer to the collection of defunct objects orbiting the Earth. Examples of debris include non-operational satellites, rocket bodies, and fragments generated from explosions, collisions, or faulty payload assembly.

Loading next visibility...
Identifier
1508, 1965-065B
Orbit
LEO
Country
Flag of USUS
Related business
Manufacturer
Aerojet
Mission
Spacecraft
Bus & Motor
ABLESTAR, Unknown motor
Mass
~600 kg wet, 600 kg dry
Launch date (UTC)
1965-08-13 (60 years ago)
Launch vehicle
Unknown
Launch site
Air Force Western Test Range (AFWTR)
Object type
Payload
Rocket body
Debris
Shape & HBR
Cyl, 2.4 m
Radar Cross Section
6.048 m², Large (>1 m²)

Expand to show TLE details & history
Last TLE update: 13 hours ago

TLE from 13 hours ago
0 THOR ABLESTAR R/B
1 01508U 65065B   25261.11618522  .00000030  00000-0  42198-4 0  9999
2 01508  90.1420 304.0708 0042676  22.1810   4.7275 13.36077528929088
Epoch: 2025-09-18T02:47Z
TLE epoch observation values (Epoch: 2025-09-18T02:47:18.403Z)
Latitude
26.98383°
Longitude
-95.11021°
Altitude
1,095.348 km
Speed
7.322 km/s
True Right ascension
20h 15m 59s
True Declination
26° 51' 05"
Sunlit
Object was in full shadow at epoch
Visualization orbit readout
Latitude
Unknown
Longitude
Unknown
Altitude
Unknown
Speed
Unknown
Apparent Right ascension
Unknown
Apparent Declination
Unknown
Sunlit
N/A
Visualization observer readout
Local Sidereal Time
08:52:58
Azimuth
Unknown
Elevation
Unknown
Doppler factor
Unknown
Orbital elements
Apogee altitude
1,153 km
Perigee altitude
1,088.993 km
Semi-major axis
7,499.134 km
Eccentricity
0.00427
Inclination
90.142°
RAAN
304.0708°
Arg. of periapsis
22.181°
True anomaly
4.76802°
Mean anomaly
4.7275°
Eccentric anomaly
4.74774°
Mean motion
3.34215 °/min
Orbital period
107.71 mins
BSTAR
0.000042198
Loading maneuver chart data...
Computing Atmospheric mass density...
Loading historical data...
Loading historical data...
Loading historical data...
Loading historical data...
Loading historical data...
Loading historical data...
Loading historical data...

Documentation

Showing up to 5 results
|